{"data":{"norad_id":49263,"intl_designator":"2021-088D","name":"CUTE","alt_names":[],"object_type":"PAYLOAD","status":"ACTIVE","operator":null,"country":"US","launch_date":"2021-09-27","launch_site_code":"AFWTR","launch_vehicle":null,"mission":null,"orbit_class":"UNKNOWN","rcs_meters":null,"size_class":null,"mass_kg":null,"dimensions":null,"purposes":[],"wikipedia_slug":null,"has_3d_model":false,"image_url":null,"decayed_at":null,"tle_current":{"epoch":"2026-07-15T19:07:02.295840Z","epoch_age_seconds":5867592,"freshness":"OLD","line1":"1 49263U 21088D   26196.79655435  .03733040  24724-5  10683-2 0  9995","line2":"2 49263  97.3958 299.2359 0012958 282.5095  77.4748 16.27350180267131","mean_motion":16.2735018,"eccentricity":0.0012958,"inclination_deg":97.3958,"raan_deg":299.2359,"arg_perigee_deg":282.5095,"mean_anomaly_deg":77.4748,"bstar":0.0010683,"rev_number":26713,"period_min":88.487408407697,"perigee_km":191.14703938271,"apogee_km":208.19408546148,"semimajor_km":6577.8075624221,"source":"CELESTRAK","updated_at":"2026-07-16T09:00:22.523394Z"}}}